Regional Weather Roundup
Issued by NWS Grand Forks, ND

Home | Current Version | Previous Version | Text Only | Print | Product List | Glossary Off
Versions: 1 2 3 4 5 6 7 8 9 10 11 12 13 14 15 16 17 18 19 20 21 22 23 24 25 26 27 28 29 30 31 32 33 34 35 36 37 38 39 40 41 42 43 44 45 46 47 48 49 50

000
ASUS43 KFGF 050631
RWRFGF
PRAIRIE TO PINES  WEATHER ROUNDUP
NATIONAL WEATHER SERVICE EASTERN NORTH DAKOTA/GRAND FORKS ND
100 AM CDT WED AUG 05 2015

 **SATELLITE DATA USED TO AUGMENT SKY COVER AT AUTOMATED STATIONS**
 *****  WEATHER ACROSS EASTERN NORTH DAKOTA  *****

CITY           SKY/WX    TMP DP  RH WIND       PRES   REMARKS
GRAND FORKS    CLEAR     62  54  74 NE7       30.04R
6HR MIN TEMP:  59; 6HR MAX TEMP:  76;

GRAND FRKS AFB CLEAR     61  54  77 E5        30.05R
GRAND FRKS NWS   N/A     61 N/A N/A NE3         N/A
DEVILS LAKE    CLEAR     63  50  63 E9        30.03S
FARGO          PTCLDY    61  54  77 CALM      30.03R
WAHPETON ARPT  NOT AVBL
$$

 ***** WEATHER ACROSS CENTRAL AND WESTERN NORTH DAKOTA  *****

CITY           SKY/WX    TMP DP  RH WIND       PRES   REMARKS
BISMARCK       MOCLDY    67  60  78 E6        29.99R
6HR MIN TEMP:  67; 6HR MAX TEMP:  85;

MINOT          CLOUDY    63  54  72 E9        29.96S
6HR MIN TEMP:  62; 6HR MAX TEMP:  81;

JAMESTOWN      PTCLDY    60  55  83 E7        30.03R
6HR MIN TEMP:  60; 6HR MAX TEMP:  77;

MINOT AFB      CLOUDY    61  56  82 SE12      29.96S
GARRISON         N/A     65  57  75 SE7       29.97R
WILLISTON      CLOUDY    75  58  55 W16G25    29.94R
6HR MIN TEMP:  75; 6HR MAX TEMP:  88;

DICKINSON      CLOUDY    68  58  70 SW12      30.00R
6HR MIN TEMP:  68; 6HR MAX TEMP:  83;

HETTINGER      CLOUDY    64  61  90 N6        30.01F
6HR MIN TEMP:  64; 6HR MAX TEMP:  84; 6HR PCP:  0.18;

$$

 *****  OTHER AIRPORT OBSERVATIONS IN OUR AREA  *****

CITY           SKY/WX    TMP DP  RH WIND       PRES   REMARKS
WALHALLA       FAIR      54  54 100 MISG      30.06F
GRAFTON AIRPOR FAIR      57  55  94 E6        30.05F
VALLEY CITY AR FAIR      63  55  77 SE7       30.05R
CANDO          FAIR      57  54  88 E8        30.05R
CAVALIER APRT  FAIR      57  54  88 E3        30.06S
GWINNER          N/A     57  54  88 CALM      30.04S
SHEYENNE NWR     N/A     56  53  88 E5        29.95S
ROLLA          FAIR      55  54  94 SE6       30.06S
 ***** THE ABOVE OBSERVATIONS ARE NON NWS ARE NOT QUALITY
       CONTROLLED AND MAY MIS-REPORT RAIN FOR SNOW...
$$

  *****  WEATHER ACROSS NORTHERN MINNESOTA  *****

CITY           SKY/WX    TMP DP  RH WIND       PRES   REMARKS
FLAG ISLAND    CLEAR     64  54  68 S9        30.08R
WARROAD        CLEAR     54  52  94 CALM      30.09S
ROSEAU         CLEAR     52  48  87 NE3       30.08S
HALLOCK        PTCLDY    57  54  88 E5        30.05F
THF RVR FALLS  PTCLDY    55  50  82 E6        30.07S
6HR MIN TEMP:  55; 6HR MAX TEMP:  73;

BAUDETTE       CLEAR     52  49  89 CALM      30.09R
6HR MIN TEMP:  51; 6HR MAX TEMP:  67;

WASKISH        CLEAR     48  48 100 CALM      30.09S
CROOKSTON      CLEAR     61  54  77 E8        30.05S
STEPHEN NDAWN    N/A     54  52  94 E3          N/A
GREENBUSH NDAW   N/A     54  52  94 E3          N/A
$$
  *****  WEATHER ACROSS CENTRAL AND WEST MINNESOTA  *****

CITY           SKY/WX    TMP DP  RH WIND       PRES   REMARKS
FOSSTON        CLEAR     52  45  76 CALM      30.08S
BEMIDJI        CLEAR     56  52  87 E6        30.09S
PARK RAPIDS    CLEAR     60  52  74 NE6       30.07R
6HR MIN TEMP:  60; 6HR MAX TEMP:  76;

ELBOW LAKE     FAIR      65  56  74 E5        30.04S
WADENA         CLEAR     54  52  94 NE3       30.06S
DETROIT LAKES  PTCLDY    61  54  77 CALM      30.07S
MOORHEAD       PTCLDY    61  54  77 E3        30.04S
FERGUS FALLS   PTCLDY    63  55  77 E3        30.04S
MORRIS MN      CLEAR     57  54  88 CALM      30.04R
STAPLES        CLEAR     55  52  88 CALM      30.06S
$$
  *****  WEATHER ELSEWHERE ACROSS MINNESOTA  *****

CITY           SKY/WX    TMP DP  RH WIND       PRES   REMARKS
DULUTH         PTCLDY    55  48  77 E5        30.09R
6HR MIN TEMP:  55; 6HR MAX TEMP:  66;

INTRNTL FALLS  CLEAR     44  43  96 CALM      30.10R
6HR MIN TEMP:  43; 6HR MAX TEMP:  65;

ELY            MOCLDY    52  48  87 CALM      30.10R
CLOQUET        PTCLDY    54  46  76 CALM      30.09R
WHEATON        CLEAR     54  52  94 SE3       30.05S
BRAINERD       CLEAR     56  53  90 NE6       30.06S
6HR MIN TEMP:  54; 6HR MAX TEMP:  76;

HIBBING        CLEAR     44  43  96 CALM      30.10S FOG
6HR MIN TEMP:  43; 6HR MAX TEMP:  68;

ALEXANDRIA     CLEAR     62  52  69 NE5       30.07R
6HR MIN TEMP:  61; 6HR MAX TEMP:  78;

SAINT CLOUD    CLEAR     57  56  96 CALM      30.04R
6HR MIN TEMP:  57; 6HR MAX TEMP:  79;

MINNEAPOLIS    CLEAR     70  53  54 W3        30.03R
6HR MIN TEMP:  69; 6HR MAX TEMP:  79;

$$

  *****  WEATHER ACROSS SOUTH DAKOTA  *****

CITY           SKY/WX    TMP DP  RH WIND       PRES   REMARKS
SIOUX FALLS    MOCLDY    66  59  78 E7        30.03R
6HR MIN TEMP:  66; 6HR MAX TEMP:  76;

BROOKINGS      CLOUDY    64  55  72 SE7       30.06S
WATERTOWN      MOCLDY    66  53  63 E5        30.04S
6HR MIN TEMP:  65; 6HR MAX TEMP:  79;

HURON          MOCLDY     1  32 100 SE7       30.01R WCI -12
6HR MIN TEMP:   1; 6HR MAX TEMP:  79;

SISSETON         N/A     55  52  89 CALM      30.03S
ABERDEEN       PTCLDY    62  56  80 E7        30.02R
6HR MIN TEMP:  62; 6HR MAX TEMP:  81;

MITCHELL       MOCLDY    66  63  90 E7        30.01S
PIERRE         MOCLDY    69  62  78 SE10      29.97F
6HR MIN TEMP:  69; 6HR MAX TEMP:  82;

MOBRIDGE       MOCLDY    70  62  76 SE12      29.98R
RAPID CITY     CLOUDY    68  60  75 CALM      30.01R
6HR MIN TEMP:  66; 6HR MAX TEMP:  81;

$$

  *****  SOME WEATHER IN NEARBY STATES *****

CITY           SKY/WX    TMP DP  RH WIND       PRES   REMARKS
GLASGOW MT     LGT RAIN  67  63  87 E5        29.90F
6HR MIN TEMP:  66; 6HR MAX TEMP:  76; 6HR PCP:  0.11;

GREAT FALLS MT PTCLDY    62  52  69 SE3       29.95F
6HR MIN TEMP:  62; 6HR MAX TEMP:  79; 6HR PCP: TRACE;

CHEYENNE WY    CLEAR     57  53  86 SW6       30.21S
6HR MIN TEMP:  57; 6HR MAX TEMP:  77; 6HR PCP:  0.01;

SCOTTSBLUFF NE MOCLDY    63  62  97 CALM      30.08R FOG
6HR MIN TEMP:  63; 6HR MAX TEMP:  71;

OMAHA NE       MOCLDY    69  66  90 E6        29.98R
6HR MIN TEMP:  69; 6HR MAX TEMP:  77; 6HR PCP:  0.30;

DES MOINES IA  CLOUDY    71  62  73 SE9       30.01F
6HR MIN TEMP:  71; 6HR MAX TEMP:  77; 6HR PCP:  0.01;

DAVENPORT IA   CLEAR     61  60  97 CALM      30.04S
6HR MIN TEMP:  61; 6HR MAX TEMP:  78;

CHICAGO IL     PTCLDY    67  58  72 SW3       30.03F
6HR MIN TEMP:  65; 6HR MAX TEMP:  77;

EAU CLAIRE WI  CLEAR     60  56  86 N5        30.03S
6HR MIN TEMP:  59; 6HR MAX TEMP:  76;

LA CROSSE WI   CLEAR     62  58  86 E3        30.03R
6HR MIN TEMP:  61; 6HR MAX TEMP:  79;

$$

  *****  SOME NATIONAL WEATHER *****

CITY           SKY/WX    TMP DP  RH WIND       PRES   REMARKS
LA GUARDIA NY  PTCLDY    77  58  51 CALM      29.90F
6HR MIN TEMP:  77; 6HR MAX TEMP:  86;

RALEIGH NC     PTCLDY    76  71  85 CALM      29.99F
6HR MIN TEMP:  76; 6HR MAX TEMP:  87;

ATLANTA GA     PTCLDY    79  65  62 SW12      30.05S
6HR MIN TEMP:  78; 6HR MAX TEMP:  91;

NEW ORLEANS LA PTCLDY    80  72  76 S8        30.00S
6HR MIN TEMP:  79; 6HR MAX TEMP:  89;

OKLAHOMA CITY  PTCLDY    75  72  90 SE9       29.92F
6HR MIN TEMP:  75; 6HR MAX TEMP:  86;

ALBUQUERQUE NM CLEAR     79  45  29 VRB3      30.16S
6HR MIN TEMP:  77; 6HR MAX TEMP:  93;

SALT LAKE CITY PTCLDY    77  49  37 E5        29.95S
6HR MIN TEMP:  76; 6HR MAX TEMP:  91;

LOS ANGELES CA CLEAR     72  63  73 SE6       29.91S
6HR MIN TEMP:  71; 6HR MAX TEMP:  77;




USA.gov is the U.S. government's official web portal to all federal, state and local government web resources and services.